FW1967 Weather Reports


time (UTC)temp
C
wind
direction
speed
KPH
gust
KPH
rain 1hr
cm
rain 24hr
cm
rain mn
cm
humidity
%
barometer
mb
20260506071502 13 275 0.0 0.0 0.00 0.00 0.00 65 1017.5
20260506061554 14 275 0.0 0.0 0.00 0.00 0.00 63 1017.2
20260506044638 14 275 0.0 0.0 0.00 0.00 0.00 63 1016.6
20260506043043 14 275 0.0 0.0 0.00 0.00 0.00 63 1016.6
20260506041551 14 275 0.0 0.0 0.00 0.00 0.00 63 1016.4
20260506040040 14 275 0.0 0.0 0.00 0.00 0.00 63 1016.3
20260506034602 14 275 0.0 0.0 0.00 0.00 0.00 63 1016.1
20260506033037 15 275 0.0 0.0 0.00 0.00 0.00 62 1015.8
20260506031533 15 275 0.0 0.0 0.00 0.00 0.00 62 1015.8
20260506030032 15 275 0.0 0.0 0.00 0.00 0.00 62 1015.6
20260506024600 15 275 0.0 0.0 0.00 0.00 0.00 61 1015.6
20260506023112 16 275 0.0 0.0 0.00 0.00 0.00 61 1015.4
20260506021557 15 275 0.0 0.0 0.00 0.00 0.00 61 1015.5
20260506020056 15 275 0.0 0.0 0.00 0.00 0.00 60 1015.5
20260506014555 15 275 1.6 6.4 0.00 0.00 0.00 60 1015.5
20260506013054 15 279 0.0 6.4 0.00 0.00 0.00 60 1015.4
20260506011614 15 262 1.6 6.4 0.00 0.00 0.00 59 1015.4
20260506010059 15 262 0.0 9.7 0.00 0.00 0.00 59 1015.4
20260506004608 16 253 1.6 6.4 0.00 0.00 0.00 58 1015.6
20260506004606 16 253 0.0 6.4 0.00 0.00 0.00 58 1015.6
20260506003102 16 253 0.0 6.4 0.00 0.00 0.00 56 1015.6
20260506001547 16 252 0.0 8.0 0.00 0.00 0.00 56 1015.6
20260506000041 16 248 0.0 6.4 0.00 0.00 0.00 58 1015.8
20260505234558 16 265 3.2 9.7 0.00 0.00 0.00 58 1016.0
20260505233040 16 279 3.2 11.3 0.00 0.00 0.00 58 1016.0
20260505231538 16 252 3.2 12.9 0.00 0.00 0.00 56 1015.9
20260505230041 16 252 4.8 11.3 0.00 0.00 0.00 55 1015.9
20260505224539 16 263 4.8 12.9 0.00 0.00 0.00 56 1015.9
20260505223034 16 267 4.8 11.3 0.00 0.00 0.00 55 1016.0
20260505221531 16 251 3.2 12.9 0.00 0.00 0.00 56 1016.0
20260505220035 16 260 4.8 11.3 0.00 0.00 0.00 53 1016.2
20260505214532 17 258 0.0 4.8 0.00 0.00 0.00 55 1016.3
20260505213026 17 253 9.7 14.5 0.00 0.00 0.00 52 1016.3
20260505211523 17 228 1.6 3.2 0.00 0.00 0.00 53 1016.4
20260505210019 16 266 1.6 12.9 0.00 0.00 0.00 57 1016.5
20260505204519 15 256 0.0 11.3 0.00 0.00 0.00 59 1016.5
20260505203018 15 254 0.0 6.4 0.00 0.00 0.00 60 1016.6
20260505201523 15 283 0.0 4.8 0.00 0.00 0.00 59 1016.6
20260505200015 15 295 0.0 8.0 0.00 0.00 0.00 60 1016.6
20260505194529 15 299 0.0 1.6 0.00 0.00 0.00 62 1016.6
20260505193031 14 240 0.0 3.2 0.00 0.00 0.00 62 1016.7
20260505191514 14 215 0.0 3.2 0.00 0.00 0.00 61 1016.8
20260505190043 14 205 0.0 1.6 0.00 0.00 0.00 63 1016.8
20260505184543 14 205 0.0 1.6 0.00 0.00 0.00 62 1016.8
20260505183014 13 205 0.0 0.0 0.00 0.00 0.00 64 1016.7
20260505181510 13 205 0.0 0.0 0.00 0.00 0.00 64 1016.6
20260505180008 13 205 0.0 3.2 0.00 0.00 0.00 66 1016.6
20260505174510 12 159 0.0 4.8 0.00 0.00 0.00 67 1016.5
20260505173005 12 272 0.0 0.0 0.00 0.00 0.00 66 1016.4
20260505171505 12 273 0.0 0.0 0.00 0.00 0.00 67 1016.3
20260505170004 12 271 0.0 0.0 0.00 0.00 0.00 67 1016.2
20260505164502 12 271 0.0 3.2 0.00 0.00 0.00 67 1016.1
20260505163000 12 184 0.0 1.6 0.00 0.00 0.00 70 1016.1
20260505161604 12 173 0.0 1.6 0.00 0.00 0.00 71 1016.1
20260505153058 11 258 0.0 3.2 0.00 0.00 0.00 75 1016.1
20260505151553 11 261 0.0 4.8 0.00 0.00 0.00 75 1016.1
20260505124601 11 265 1.6 6.4 0.00 0.00 0.00 69 1015.1
20260505123050 11 269 0.0 4.8 0.00 0.00 0.00 68 1015.1
20260505121527 11 271 0.0 1.6 0.00 0.00 0.00 68 1014.9
20260505120126 11 262 0.0 0.0 0.00 0.00 0.00 68 1014.9
20260505114613 11 262 0.0 4.8 0.00 0.00 0.00 68 1014.9
20260505113054 11 263 0.0 6.4 0.00 0.00 0.00 67 1014.8
20260505111604 11 266 0.0 11.3 0.00 0.00 0.00 67 1014.8
20260505101541 12 243 0.0 3.2 0.00 0.00 0.00 66 1014.3
20260505100038 12 242 1.6 6.4 0.00 0.00 0.00 66 1014.4
20260505094539 12 271 0.0 4.8 0.00 0.00 0.00 66 1014.3
20260505093037 12 276 0.0 3.2 0.00 0.00 0.00 66 1014.3
20260505091535 12 284 3.2 9.7 0.00 0.00 0.00 66 1014.1
20260505090033 12 192 0.0 6.4 0.00 0.00 0.00 65 1013.9
20260505084527 12 277 1.6 8.0 0.00 0.00 0.00 65 1013.7
20260505083030 12 285 1.6 6.4 0.00 0.00 0.00 64 1013.7
20260505081526 12 249 3.2 12.9 0.00 0.00 0.00 64 1013.6
20260505080030 13 279 3.2 14.5 0.00 0.00 0.00 64 1013.4
20260505074516 13 193 1.6 9.7 0.00 0.00 0.00 63 1013.3
20260505073016 13 255 1.6 8.0 0.00 0.00 0.00 62 1013.1